GW5388 Weather Reports


time (UTC)temp
C
wind
direction
speed
KPH
gust
KPH
rain 1hr
cm
rain 24hr
cm
rain mn
cm
humidity
%
barometer
mb
20260506193016 14 0.0 0.0 0.00 0.23 0.23 89 1006.9
20260506192507 14 0.0 0.0 0.03 0.23 0.23 89 1007.0
20260506192009 14 0.0 0.0 0.03 0.23 0.23 89 1006.9
20260506191522 14 0.0 0.0 0.03 0.23 0.23 89 1006.9
20260506191006 14 0.0 0.0 0.03 0.23 0.23 89 1007.0
20260506190507 14 0.0 0.0 0.05 0.23 0.23 88 1007.0
20260506190024 14 0.0 0.0 0.05 0.23 0.23 88 1007.2
20260506185507 14 0.0 0.0 0.05 0.23 0.23 88 1007.2
20260506185009 14 0.0 0.0 0.05 0.23 0.23 88 1007.1
20260506184529 14 0.0 0.0 0.05 0.23 0.23 88 1007.1
20260506184009 14 0.0 0.0 0.08 0.23 0.23 88 1007.2
20260506183505 14 0.0 0.0 0.08 0.23 0.23 88 1007.3
20260506183016 14 0.0 0.0 0.08 0.23 0.23 87 1007.2
20260506182503 14 0.0 0.0 0.08 0.20 0.20 87 1007.4
20260506182007 15 0.0 0.0 0.08 0.20 0.20 88 1007.4
20260506181521 15 0.0 0.0 0.10 0.20 0.20 88 1007.4
20260506181007 14 0.0 0.0 0.13 0.20 0.20 87 1007.4
20260506180509 14 0.0 0.0 0.10 0.18 0.18 87 1007.4
20260506180028 15 0.0 0.0 0.13 0.18 0.18 87 1007.2
20260506175505 15 0.0 0.0 0.15 0.18 0.18 86 1007.2
20260506175012 15 0.0 0.0 0.18 0.18 0.18 86 1007.3
20260506174524 15 0.0 0.0 0.18 0.18 0.18 86 1007.4
20260506174009 15 0.0 0.0 0.15 0.15 0.15 86 1007.3
20260506173512 15 0.0 0.0 0.15 0.15 0.15 86 1007.2
20260506173032 15 0.0 0.0 0.15 0.15 0.15 85 1007.4
20260506172503 15 0.0 0.0 0.13 0.13 0.13 86 1007.5
20260506172006 15 0.0 0.0 0.13 0.13 0.13 85 1007.6
20260506171517 15 0.0 0.0 0.10 0.10 0.10 85 1007.8
20260506171004 15 0.0 0.0 0.08 0.08 0.08 84 1008.2
20260506170507 15 0.0 0.0 0.08 0.08 0.08 84 1008.0
20260506170023 15 0.0 0.0 0.05 0.05 0.05 83 1008.3
20260506165508 16 0.0 0.0 0.03 0.03 0.03 82 1008.6
20260506165007 16 0.0 0.0 0.00 0.00 0.00 80 1008.7
20260506164526 16 0.0 0.0 0.00 0.00 0.00 79 1008.8
20260506164011 16 0.0 0.0 0.00 0.00 0.00 77 1008.5
20260506163506 17 0.0 0.0 0.00 0.00 0.00 75 1008.7
20260506163031 17 0.0 0.0 0.00 0.00 0.00 74 1008.6
20260506162510 17 0.0 0.0 0.00 0.00 0.00 74 1008.5
20260506162011 17 0.0 0.0 0.00 0.00 0.00 73 1008.5
20260506161518 17 0.0 0.0 0.00 0.00 0.00 75 1008.4
20260506161005 17 0.0 0.0 0.00 0.00 0.00 73 1008.4
20260506160510 17 0.0 0.0 0.00 0.00 0.00 71 1008.3
20260506160021 17 0.0 0.0 0.00 0.00 0.00 71 1008.5
20260506155506 17 0.0 0.0 0.00 0.00 0.00 71 1008.6
20260506155009 18 0.0 0.0 0.00 0.00 0.00 70 1008.7
20260506154527 18 0.0 0.0 0.00 0.00 0.00 70 1008.7
20260506154013 18 0.0 0.0 0.00 0.00 0.00 69 1008.9
20260506153514 18 0.0 0.0 0.00 0.00 0.00 71 1009.0
20260506153024 17 0.0 0.0 0.00 0.00 0.00 72 1009.1
20260506152508 17 0.0 0.0 0.00 0.00 0.00 71 1009.0
20260506152012 17 0.0 0.0 0.00 0.00 0.00 72 1008.9
20260506151529 17 0.0 0.0 0.00 0.00 0.00 71 1009.1
20260506151003 17 0.0 0.0 0.00 0.00 0.00 72 1009.1
20260506150504 17 0.0 0.0 0.00 0.00 0.00 72 1009.0
20260506150016 17 0.0 0.0 0.00 0.00 0.00 72 1009.1
20260506145506 17 0.0 0.0 0.00 0.00 0.00 71 1009.1
20260506145008 17 0.0 0.0 0.00 0.00 0.00 72 1009.1
20260506144505 17 0.0 0.0 0.00 0.00 0.00 71 1009.1
20260506144003 17 0.0 0.0 0.00 0.00 0.00 72 1009.1
20260506143503 17 0.0 0.0 0.00 0.00 0.00 72 1009.3
20260506143017 17 0.0 0.0 0.00 0.00 0.00 73 1009.3
20260506142506 17 0.0 0.0 0.00 0.00 0.00 72 1009.4
20260506142007 17 0.0 0.0 0.00 0.00 0.00 74 1009.4
20260506141512 17 0.0 0.0 0.00 0.00 0.00 73 1009.4
20260506141006 17 0.0 0.0 0.00 0.00 0.00 74 1009.3
20260506140503 17 0.0 0.0 0.00 0.00 0.00 75 1009.3
20260506140016 17 0.0 0.0 0.00 0.00 0.00 74 1009.2
20260506135507 17 0.0 0.0 0.00 0.00 0.00 76 1009.3
20260506135008 16 0.0 0.0 0.00 0.00 0.00 76 1009.3
20260506134520 16 0.0 0.0 0.00 0.00 0.00 76 1009.2
20260506134008 16 0.0 0.0 0.00 0.00 0.00 76 1009.3
20260506133504 16 0.0 0.0 0.00 0.00 0.00 78 1009.3
20260506133006 16 0.0 0.0 0.00 0.00 0.00 77 1009.1
20260506132506 16 0.0 0.0 0.00 0.00 0.00 77 1009.1
20260506132005 16 0.0 0.0 0.00 0.00 0.00 77 1009.0
20260506131510 16 0.0 0.0 0.00 0.00 0.00 78 1009.1
20260506131005 16 0.0 0.0 0.00 0.00 0.00 79 1009.1
20260506130506 15 0.0 0.0 0.00 0.00 0.00 80 1009.2
20260506130016 15 0.0 0.0 0.00 0.00 0.00 79 1009.3
20260506125505 15 0.0 0.0 0.00 0.00 0.00 80 1009.3
20260506125009 15 0.0 0.0 0.00 0.00 0.00 80 1009.3
20260506124520 15 0.0 0.0 0.00 0.00 0.00 79 1009.4
20260506124007 15 0.0 0.0 0.00 0.00 0.00 80 1009.3
20260506123504 15 0.0 0.0 0.00 0.00 0.00 80 1009.4
20260506123020 15 0.0 0.0 0.00 0.00 0.00 80 1009.7
20260506122504 15 0.0 0.0 0.00 0.00 0.00 81 1009.7
20260506122003 15 0.0 0.0 0.00 0.00 0.00 81 1009.7
20260506121510 15 0.0 0.0 0.00 0.00 0.00 81 1009.8
20260506121002 15 0.0 0.0 0.00 0.00 0.00 82 1009.7
20260506120502 14 0.0 0.0 0.00 0.00 0.00 82 1009.6
20260506120019 14 0.0 0.0 0.00 0.00 0.00 83 1009.7
20260506115511 14 0.0 0.0 0.00 0.00 0.00 83 1009.6
20260506115007 14 0.0 0.0 0.00 0.00 0.00 83 1009.6
20260506114517 14 0.0 0.0 0.00 0.00 0.00 83 1009.5
20260506114007 14 0.0 0.0 0.00 0.00 0.00 83 1009.7
20260506113506 13 0.0 0.0 0.00 0.00 0.00 83 1009.6
20260506113022 13 0.0 0.0 0.00 0.00 0.00 84 1009.6
20260506112505 13 0.0 0.0 0.00 0.00 0.00 84 1009.7
20260506112007 13 0.0 0.0 0.00 0.00 0.00 84 1009.9
20260506111507 13 0.0 0.0 0.00 0.00 0.00 85 1009.7
20260506111004 13 0.0 0.0 0.00 0.00 0.00 85 1009.6
20260506110504 13 0.0 0.0 0.00 0.00 0.00 85 1009.6
20260506110011 13 0.0 0.0 0.00 0.00 0.00 86 1009.6
20260506105504 13 0.0 0.0 0.00 0.00 0.00 86 1009.7
20260506105005 13 0.0 0.0 0.00 0.00 0.00 86 1009.8
20260506104518 13 0.0 0.0 0.00 0.00 0.00 86 1009.9
20260506104006 12 0.0 0.0 0.00 0.00 0.00 86 1009.8
20260506103504 12 0.0 0.0 0.00 0.00 0.00 85 1009.7
20260506103021 12 0.0 0.0 0.00 0.00 0.00 85 1009.5
20260506102507 12 0.0 0.0 0.00 0.00 0.00 85 1009.7
20260506102006 12 0.0 0.0 0.00 0.00 0.00 85 1009.7
20260506101539 12 0.0 0.0 0.00 0.00 0.00 85 1009.6
20260506101007 12 0.0 0.0 0.00 0.00 0.00 85 1009.4
20260506100505 12 0.0 0.0 0.00 0.00 0.00 84 1009.3
20260506100007 12 0.0 0.0 0.00 0.00 0.00 84 1009.4
20260506095506 12 0.0 0.0 0.00 0.00 0.00 84 1009.4
20260506095004 12 0.0 0.0 0.00 0.00 0.00 84 1009.4
20260506094521 12 0.0 0.0 0.00 0.00 0.00 83 1009.3
20260506094008 12 0.0 0.0 0.00 0.00 0.00 83 1009.3
20260506093506 12 0.0 0.0 0.00 0.00 0.00 83 1009.3
20260506093023 12 0.0 0.0 0.00 0.00 0.00 83 1009.3
20260506092506 12 0.0 0.0 0.00 0.00 0.00 82 1009.4
20260506092013 12 0.0 0.0 0.00 0.00 0.00 82 1009.4
20260506091525 12 0.0 0.0 0.00 0.00 0.00 82 1009.4
20260506091007 12 0.0 0.0 0.00 0.00 0.00 82 1009.4
20260506090506 13 0.0 0.0 0.00 0.00 0.00 82 1009.4
20260506090026 13 0.0 0.0 0.00 0.00 0.00 81 1009.4
20260506085506 13 0.0 0.0 0.00 0.00 0.00 81 1009.3
20260506085004 13 0.0 0.0 0.00 0.00 0.00 81 1009.4
20260506084511 13 0.0 0.0 0.00 0.00 0.00 81 1009.5
20260506084004 13 0.0 0.0 0.00 0.00 0.00 81 1009.5
20260506083505 13 0.0 0.0 0.00 0.00 0.00 80 1009.4
20260506083018 13 0.0 0.0 0.00 0.00 0.00 80 1009.4
20260506082508 13 0.0 0.0 0.00 0.00 0.00 80 1009.5
20260506082006 13 0.0 0.0 0.00 0.00 0.00 80 1009.6
20260506081528 13 0.0 0.0 0.00 0.00 0.00 80 1009.5
20260506081006 13 0.0 0.0 0.00 0.00 0.00 79 1009.5
20260506080510 13 0.0 0.0 0.00 0.00 0.00 79 1009.4
20260506073504 13 0.0 0.0 0.00 0.00 0.00 79 1009.5
20260506073030 13 0.0 0.0 0.00 0.00 0.00 79 1009.5
20260506072504 13 0.0 0.0 0.00 0.00 0.00 79 1009.6
20260506072008 13 0.0 0.0 0.00 0.00 0.00 79 1009.6
20260506071520 13 0.0 0.0 0.00 0.00 0.00 78 1009.5
20260506071010 13 0.0 0.0 0.00 0.00 0.00 78 1009.6
20260506070506 13 0.0 0.0 0.00 0.00 0.00 78 1009.6
20260506062505 13 0.0 0.0 0.00 0.00 0.00 75 1009.5
20260506062006 14 0.0 0.0 0.00 0.00 0.00 74 1009.5
20260506061516 14 0.0 0.0 0.00 0.00 0.00 74 1009.6
20260506061006 14 0.0 0.0 0.00 0.00 0.00 73 1009.5
20260506060506 14 0.0 0.0 0.00 0.00 0.00 73 1009.6
20260506051005 15 0.0 0.0 0.00 0.00 0.00 70 1010.1
20260506050506 15 0.0 0.0 0.00 0.00 0.00 69 1010.1
20260506045007 15 0.0 0.0 0.00 0.00 0.00 69 1010.0
20260506044550 15 0.0 0.0 0.00 0.00 0.00 68 1010.0
20260506044009 15 0.0 0.0 0.00 0.00 0.00 68 1010.1
20260506043510 15 0.0 0.0 0.00 0.00 0.00 68 1010.2
20260506043026 15 0.0 0.0 0.00 0.00 0.00 68 1010.2
20260506042509 15 0.0 0.0 0.00 0.00 0.00 68 1010.1
20260506042012 16 0.0 0.0 0.00 0.00 0.00 67 1010.2
20260506041527 16 0.0 0.0 0.00 0.00 0.00 67 1010.1
20260506041012 16 0.0 0.0 0.00 0.00 0.00 68 1010.1
20260506040507 16 0.0 0.0 0.00 0.00 0.00 67 1010.1
20260506040017 16 0.0 0.0 0.00 0.00 0.00 66 1010.2
20260506035506 16 0.0 0.0 0.00 0.00 0.00 66 1010.1
20260506035007 16 0.0 0.0 0.00 0.00 0.00 66 1010.2
20260506034543 16 0.0 0.0 0.00 0.00 0.00 66 1010.2
20260506034008 16 0.0 0.0 0.00 0.00 0.00 66 1010.1
20260506033506 16 0.0 0.0 0.00 0.00 0.00 66 1010.2
20260506033025 16 0.0 0.0 0.00 0.00 0.00 66 1010.2
20260506032507 16 0.0 0.0 0.00 0.00 0.00 66 1010.2
20260506032008 16 0.0 0.0 0.00 0.00 0.00 66 1010.2
20260506031528 16 0.0 0.0 0.00 0.00 0.00 65 1010.1
20260506031008 16 0.0 0.0 0.00 0.00 0.00 65 1010.2
20260506030510 16 0.0 0.0 0.00 0.00 0.00 65 1010.2
20260506030028 16 0.0 0.0 0.00 0.00 0.00 64 1010.1
20260506025512 16 0.0 0.0 0.00 0.00 0.00 64 1010.2
20260506025004 16 0.0 0.0 0.00 0.00 0.00 64 1010.1
20260506024520 16 0.0 0.0 0.00 0.00 0.00 64 1010.1
20260506024011 16 0.0 0.0 0.00 0.00 0.00 64 1010.0
20260506023513 16 0.0 0.0 0.00 0.00 0.00 64 1009.9
20260506023025 16 0.0 0.0 0.00 0.00 0.00 63 1009.9
20260506022510 16 0.0 0.0 0.00 0.00 0.00 63 1009.9
20260506022006 16 0.0 0.0 0.00 0.00 0.00 63 1010.0
20260506021525 16 0.0 0.0 0.00 0.00 0.00 63 1010.0
20260506021009 16 0.0 0.0 0.00 0.00 0.00 63 1010.1
20260506020510 16 0.0 0.0 0.00 0.00 0.00 63 1010.0
20260506020026 16 0.0 0.0 0.00 0.00 0.00 63 1009.9
20260506015510 16 0.0 0.0 0.00 0.00 0.00 62 1009.9
20260506015011 17 0.0 0.0 0.00 0.00 0.00 62 1010.0
20260506014531 17 0.0 0.0 0.00 0.00 0.00 61 1010.0
20260506014007 17 0.0 0.0 0.00 0.00 0.00 62 1009.8
20260506013505 17 0.0 0.0 0.00 0.00 0.00 62 1009.7
20260506013023 17 0.0 0.0 0.00 0.00 0.00 62 1009.7
20260506012509 17 0.0 0.0 0.00 0.00 0.00 62 1009.6
20260506012010 17 0.0 0.0 0.00 0.00 0.00 62 1009.6
20260506011527 17 0.0 0.0 0.00 0.00 0.00 61 1009.5
20260506011009 17 0.0 0.0 0.00 0.00 0.00 61 1009.5
20260506010507 17 0.0 0.0 0.00 0.00 0.00 61 1009.5
20260506010027 17 0.0 0.0 0.00 0.00 0.00 60 1009.4
20260506005503 17 0.0 0.0 0.00 0.00 0.00 60 1009.3
20260506005007 17 0.0 0.0 0.00 0.00 0.00 60 1009.3
20260506004531 17 0.0 0.0 0.00 0.00 0.00 60 1009.3
20260506004008 17 0.0 0.0 0.00 0.00 0.00 60 1009.1
20260506003507 17 0.0 0.0 0.00 0.00 0.00 60 1009.1
20260506003035 17 0.0 0.0 0.00 0.00 0.00 59 1009.0
20260506002508 17 0.0 0.0 0.00 0.00 0.00 59 1009.0
20260506002012 18 0.0 0.0 0.00 0.00 0.00 59 1008.9
20260506001523 18 0.0 0.0 0.00 0.00 0.00 59 1008.9
20260506001007 18 0.0 0.0 0.00 0.00 0.00 58 1008.8
20260506000507 18 0.0 0.0 0.00 0.00 0.00 58 1008.6
20260506000027 18 0.0 0.0 0.00 0.00 0.00 58 1008.6
20260505235508 18 0.0 0.0 0.00 0.00 0.00 57 1008.5
20260505235011 18 0.0 0.0 0.00 0.00 0.00 57 1008.5
20260505234525 18 0.0 0.0 0.00 0.00 0.00 56 1008.5
20260505234009 18 0.0 0.0 0.00 0.00 0.00 55 1008.4
20260505233510 18 0.0 0.0 0.00 0.00 0.00 56 1008.4
20260505233019 19 0.0 0.0 0.00 0.00 0.00 55 1008.3
20260505232508 19 0.0 0.0 0.00 0.00 0.00 56 1008.3
20260505232007 19 0.0 0.0 0.00 0.00 0.00 55 1008.2
20260505231525 19 0.0 0.0 0.00 0.00 0.00 54 1008.1
20260505231007 20 0.0 0.0 0.00 0.00 0.00 54 1008.1
20260505230506 20 0.0 0.0 0.00 0.00 0.00 53 1008.0
20260505230035 20 0.0 0.0 0.00 0.00 0.00 52 1008.0
20260505225517 20 0.0 0.0 0.00 0.00 0.00 53 1007.9
20260505225008 20 0.0 0.0 0.00 0.00 0.00 53 1008.0
20260505224530 21 0.0 0.0 0.00 0.00 0.00 51 1007.9
20260505224009 21 0.0 0.0 0.00 0.00 0.00 51 1007.8
20260505223506 21 0.0 0.0 0.00 0.00 0.00 50 1007.8
20260505223018 21 0.0 0.0 0.00 0.00 0.00 48 1007.6
20260505222508 22 0.0 0.0 0.00 0.00 0.00 47 1007.6
20260505222006 22 0.0 0.0 0.00 0.00 0.00 46 1007.3
20260505221524 22 0.0 0.0 0.00 0.00 0.00 47 1007.3
20260505221006 22 0.0 0.0 0.00 0.00 0.00 48 1007.3
20260505220508 22 0.0 0.0 0.00 0.00 0.00 46 1007.3
20260505220038 22 0.0 0.0 0.00 0.00 0.00 48 1007.5
20260505215502 22 0.0 0.0 0.00 0.00 0.00 47 1007.5
20260505215003 22 0.0 0.0 0.00 0.00 0.00 46 1007.5
20260505214516 22 0.0 0.0 0.00 0.00 0.00 46 1007.6
20260505214003 23 0.0 0.0 0.00 0.00 0.00 44 1007.6
20260505213508 23 0.0 0.0 0.00 0.00 0.00 45 1007.6
20260505213016 23 0.0 0.0 0.00 0.00 0.00 44 1007.6
20260505212512 23 0.0 0.0 0.00 0.00 0.00 44 1007.6
20260505212012 23 0.0 0.0 0.00 0.00 0.00 45 1007.5
20260505211522 23 0.0 0.0 0.00 0.00 0.00 47 1007.4
20260505211006 23 0.0 0.0 0.00 0.00 0.00 45 1007.4
20260505210506 23 0.0 0.0 0.00 0.00 0.00 44 1007.3
20260505210026 23 0.0 0.0 0.00 0.00 0.00 49 1007.4
20260505205508 23 0.0 0.0 0.00 0.00 0.00 44 1007.3
20260505205010 23 0.0 0.0 0.00 0.00 0.00 47 1007.4
20260505204507 23 0.0 0.0 0.00 0.00 0.00 44 1007.3
20260505204006 23 0.0 0.0 0.00 0.00 0.00 43 1007.2
20260505203504 24 0.0 0.0 0.00 0.00 0.00 43 1007.2
20260505203014 24 0.0 0.0 0.00 0.00 0.00 44 1007.2
20260505202505 24 0.0 0.0 0.00 0.00 0.00 42 1007.2
20260505202009 25 0.0 0.0 0.00 0.00 0.00 41 1007.1
20260505201523 25 0.0 0.0 0.00 0.00 0.00 40 1007.2
20260505201008 25 0.0 0.0 0.00 0.00 0.00 48 1007.2
20260505200510 25 0.0 0.0 0.00 0.00 0.00 42 1007.1
20260505200021 25 0.0 0.0 0.00 0.00 0.00 43 1007.3
20260505195506 25 0.0 0.0 0.00 0.00 0.00 43 1007.4
20260505195016 25 0.0 0.0 0.00 0.00 0.00 41 1007.4
20260505194534 25 0.0 0.0 0.00 0.00 0.00 41 1007.5
20260505194011 25 0.0 0.0 0.00 0.00 0.00 40 1007.4
20260505193502 25 0.0 0.0 0.00 0.00 0.00 40 1007.5